M0HZQ-1 Weather Reports


time (UTC)temp
F
wind
direction
speed
knots
gust
knots
rain 1hr
in
rain 24hr
in
rain mn
in
humidity
%
barometer
mb
20260505193357 60 0 0.0 0.0 0.00 0.00 0.00 47 1012.5
20260505191604 60 0 0.0 0.0 0.00 0.00 0.00 46 1012.3
20260505185957 62 0 0.0 0.0 0.00 0.00 0.00 44 1012.1
20260505184229 63 0 0.0 0.0 0.00 0.00 0.00 43 1012.0
20260505182249 63 0 0.0 0.0 0.00 0.00 0.00 42 1011.9
20260505180337 64 0 0.0 0.0 0.00 0.00 0.00 41 1012.0
20260505174717 64 0 0.0 0.0 0.00 0.00 0.00 41 1012.0
20260505172857 65 0 0.0 0.0 0.00 0.00 0.00 40 1012.0
20260505170917 66 0 0.0 0.0 0.00 0.00 0.00 39 1012.0
20260505165137 65 0 0.0 0.0 0.00 0.00 0.00 40 1012.1
20260505163524 65 0 0.0 0.0 0.00 0.00 0.00 39 1012.0
20260505161914 65 0 0.0 0.0 0.00 0.00 0.00 39 1012.0
20260505152224 66 0 0.0 0.0 0.00 0.00 0.00 38 1012.1
20260505150417 65 0 0.0 0.0 0.00 0.00 0.00 38 1012.1
20260505124329 64 0 0.0 0.0 0.00 0.00 0.00 41 1012.9
20260505122634 66 0 0.0 0.0 0.00 0.00 0.00 40 1012.9
20260505120809 66 0 0.0 0.0 0.00 0.00 0.00 41 1012.8
20260505115114 64 0 0.0 0.0 0.00 0.00 0.00 43 1012.9
20260505113517 66 0 0.0 0.0 0.00 0.00 0.00 43 1013.0
20260505111609 64 0 0.0 0.0 0.00 0.00 0.00 44 1013.0
20260505100429 62 0 0.0 0.0 0.00 0.00 0.00 49 1013.4
20260505094554 62 0 0.0 0.0 0.00 0.00 0.00 51 1013.6
20260505092924 63 0 0.0 0.0 0.00 0.00 0.00 53 1013.6
20260505091154 60 0 0.0 0.0 0.00 0.00 0.00 55 1013.7
20260505085554 60 0 0.0 0.0 0.00 0.00 0.00 55 1013.7
20260505083844 59 0 0.0 0.0 0.00 0.00 0.00 57 1013.8
20260505082219 58 0 0.0 0.0 0.00 0.00 0.00 59 1013.7
20260505080339 58 0 0.0 0.0 0.00 0.00 0.00 59 1013.7
20260505074729 58 0 0.0 0.0 0.00 0.00 0.00 60 1013.6
20260505072754 57 0 0.0 0.0 0.00 0.00 0.00 61 1013.7
20260505070954 58 0 0.0 0.0 0.00 0.00 0.00 61 1013.8
20260505065024 58 0 0.0 0.0 0.00 0.00 0.00 62 1013.8
20260505063134 57 0 0.0 0.0 0.00 0.00 0.00 64 1013.9
20260505061304 56 0 0.0 0.0 0.00 0.00 0.00 65 1013.7
20260505055314 56 0 0.0 0.0 0.00 0.00 0.00 65 1013.9
20260505053344 56 0 0.0 0.0 0.00 0.00 0.00 65 1014.0
20260505051549 57 0 0.0 0.0 0.00 0.00 0.00 66 1014.0
20260505040229 54 0 0.0 0.0 0.00 0.00 0.00 68 1014.1
20260505034414 55 0 0.0 0.0 0.00 0.00 0.00 67 1014.1
20260505032414 55 0 0.0 0.0 0.00 0.00 0.00 67 1014.1
20260505030814 56 0 0.0 0.0 0.00 0.00 0.00 66 1014.1
20260505025109 57 0 0.0 0.0 0.00 0.00 0.00 66 1014.1
20260505023414 55 0 0.0 0.0 0.00 0.00 0.00 66 1014.3
20260505021434 56 0 0.0 0.0 0.00 0.00 0.00 64 1014.3
20260505015509 60 0 0.0 0.0 0.00 0.00 0.00 62 1014.3
20260505013617 60 0 0.0 0.0 0.00 0.00 0.00 61 1014.4
20260505011657 60 0 0.0 0.0 0.00 0.00 0.00 61 1014.7
20260505005924 61 0 0.0 0.0 0.00 0.00 0.00 62 1014.8
20260505004109 60 0 0.0 0.0 0.00 0.00 0.00 62 1014.7
20260505002429 59 0 0.0 0.0 0.00 0.00 0.00 63 1014.8
20260505000557 58 0 0.0 0.0 0.00 0.00 0.00 63 1014.8
20260504234934 58 0 0.0 0.0 0.00 0.00 0.00 62 1015.1
20260504233329 58 0 0.0 0.0 0.00 0.00 0.00 62 1015.2
20260504231329 58 0 0.0 0.0 0.00 0.00 0.00 62 1015.1
20260504225704 57 0 0.0 0.0 0.00 0.00 0.00 62 1015.2
20260504223834 57 0 0.0 0.0 0.00 0.00 0.00 62 1015.1
20260504221849 58 0 0.0 0.0 0.00 0.00 0.00 62 1015.3
20260504215914 58 0 0.0 0.0 0.00 0.00 0.00 62 1015.5
20260504214114 58 0 0.0 0.0 0.00 0.00 0.00 62 1015.5
20260504212454 58 0 0.0 0.0 0.00 0.00 0.00 62 1015.3
20260504210634 59 0 0.0 0.0 0.00 0.00 0.00 61 1015.3
20260504204804 59 0 0.0 0.0 0.00 0.00 0.00 61 1015.4
20260504202944 60 0 0.0 0.0 0.00 0.00 0.00 60 1015.2
20260504201029 61 0 0.0 0.0 0.00 0.00 0.00 60 1015.3
20260504195324 60 0 0.0 0.0 0.00 0.00 0.00 60 1015.0